Location: Asheville, NC
(35.6000°N, 82.5500°W)
Time: 19:53:59
(UTC-04:00)

Vanguard 3 - Pass Details

Date: 15 March 2018
Orbit: 508 x 3264 km, 33.3° (Epoch: 19 June)

Event Time Altitude Azimuth Distance (km) Brightness Sun altitude
Rises 11:43:12 0° 266° (W) 7,212 11.7 43.7°
Reaches altitude 10° 11:48:16 10° 266° (W) 6,085 11.4 44.4°
Maximum altitude 12:06:48 82° 183° (S) 2,401 10.6 46.7°
Drops below altitude 10° 12:17:52 10° 97° (E) 3,872 11.1 47.9°
Sets 12:20:22 0° 96° (E) 4,564 11.3 48.2°
